Weather Roundup
Issued by NWS Springfield, MO

Home | Current Version | Previous Version | Text Only | Print | Product List | Glossary On
Versions: 1 2 3 4 5 6 7 8 9 10 11 12 13 14 15 16 17 18 19 20 21 22 23 24 25 26 27 28 29 30 31 32 33 34 35 36 37 38 39 40 41 42 43 44 45 46 47 48 49 50
951
NZUS99 KSGF 291007
HRRSGF

HOURLY WEATHER
NATIONAL WEATHER SERVICE SPRINGFIELD MO
500 AM CDT FRI JUL 29 2016

......SGF CWA......

CITY           SKY/WX    TMP DP  RH WIND       PRES   REMARKS
SPRINGFIELD    CLEAR     71  68  90 SE6       29.91F
JOPLIN         CLEAR     69  67  93 CALM      29.91F
WEST PLAINS    CLEAR     67  64  90 CALM      29.96F
ROLLA          PTCLDY    67  65  93 NE3       29.93S
OSAGE BEACH    PTCLDY    69  69 100 E3        29.93F
BRANSON        CLEAR     70  68  94 CALM      29.94F

......SURROUNDING SGF CWA......

CITY           SKY/WX    TMP DP  RH WIND       PRES   REMARKS
CHANUTE        PTCLDY    69  66  90 NW3       29.95R
PARSONS        CLEAR     67  65  93 NW3       29.95R
COFFEYVILLE    CLEAR     69  68  96 W3        29.93R
EMPORIA        MOCLDY    67  66  97 W3        29.97R
GROVE OK       CLEAR     73  73 100 CALM      29.91F FOG
ROGERS AR      CLEAR     73  72  96 CALM      29.94F
SILOAM SPRINGS CLEAR     72  63  73 SW5       29.95F
HARRISON AR    CLEAR     71  69  93 SE5       29.94F
NEAR YELLVILLE CLEAR     72  68  88 CALM      29.89F

......KANSAS AND MISSOURI......

CITY           SKY/WX    TMP DP  RH WIND       PRES   REMARKS
KANSAS CTY INT PTCLDY    69  63  81 NE9       29.94F
DOWNTOWN KC    CLEAR     72  65  78 NE6       29.92F
COLUMBIA       PTCLDY    70  68  93 CALM      29.94S
SEDALIA        MOCLDY    73  70  90 NE3       29.93F
ST JOSEPH      PTCLDY    66  64  93 N6        29.95F
ST LOUIS       PTCLDY    74  69  85 NW3       29.93R
SPIRIT OF STL  PTCLDY    74  70  87 N3        29.91R
KIRKSVILLE     CLEAR     65  63  93 N6        29.96R
WICHITA        CLOUDY    71  68  90 N3        29.98F
TOPEKA         PTCLDY    66  65  96 W3        29.95S
OLATHE         CLEAR     68  67  96 NE3       29.92F

......TENNESSEE......

CITY           SKY/WX    TMP DP  RH WIND       PRES   REMARKS
MEMPHIS        CLOUDY    76  72  87 SW9       29.96S
NASHVILLE      CLOUDY    77  73  87 SW3       29.97S

......ARKANSAS.......

CITY           SKY/WX    TMP DP  RH WIND       PRES   REMARKS
FAYETTEVILLE   CLEAR     72  72 100 S5        29.94S
FT SMITH       CLEAR     78  72  81 SW6       29.91F
LITTLE ROCK    CLOUDY    76  72  87 SW8       29.94F

......OKLAHOMA.......

CITY           SKY/WX    TMP DP  RH WIND       PRES   REMARKS
TULSA          PTCLDY    75  69  81 VRB3      29.91R
PONCA CITY     LGT RAIN  72  64  76 N16G24    30.01R
MCALESTER      PTCLDY    76  72  87 CALM      29.96S
OKLAHOMA CITY  PTCLDY    73  70  90 S5        29.95S

......IOWA............

CITY           SKY/WX    TMP DP  RH WIND       PRES   REMARKS
DES MOINES     CLOUDY    67  63  87 N6        29.96F
QUAD CITIES    CLOUDY    71  67  87 N3        29.90F

......ILLINOIS........

CITY           SKY/WX    TMP DP  RH WIND       PRES   REMARKS
QUINCY         CLEAR     66  66 100 NW3       29.92S
CHICAGO        MOCLDY    70  68  93 N3        29.91S




USA.gov is the U.S. government's official web portal to all federal, state and local government web resources and services.